CYRL

Red Lake Airport

Airport
ICAO code
CYRL
IATA Code
YRL
Summary
ICAO Region
NAM
ICAO Territory
Location

Cochenour, Ontario

Serving
Red Lake
Elevation
1266 ft
Coordinates
51° 4' 2" N , 93° 47' 35" W
KCC
Airport CFIT
Altimeter Temperature Error Correction
Metar
CYRL 130000Z 23005KT 15SM FEW048 BKN170 BKN210 27/18 A2989 RMK CF1AC6CI1 CF TR SLP120 DENSITY ALT 3000FT

Red Lake Airport is located 3 nm (5.6 km; 3.5 mi) north of Red Lake, Ontario, Canada.

Runways

Designator Length Width Surface Rops
8/26 1524 46 ASP No/No

Airport map

Aerial View

SKYbrary Partners:

Safety knowledge contributed by: